EHI
0 0 0 0 0 0 0 0 0 0 1 2 4 6 6 5 7 11 12 9 5 5 6 8 11 14 15 15 12 12 13 14 11 9 9 8 7 6 6 4 3 3 3 3
0 0 0 0 0 0 0 0 0 0 0 1 4 7 7 6 8 11 11 9 8 7 8 11 14 15 15 15 13 13 15 15 13 12 10 9 8 6 5 4 3 3 3 3
0 0 0 0 0 0 0 0 0 0 0 2 6 7 7 7 8 10 9 10 11 10 12 15 17 18 17 16 15 14 15 16 15 14 12 10 9 7 6 5 4 3 3 2
0 0 0 0 0 0 0 0 0 0 2 4 7 8 7 6 6 7 7 9 10 11 14 17 18 18 18 18 17 15 15 15 14 14 13 11 8 6 5 6 6 4 3 2
0 0 0 0 0 0 0 0 0 1 3 6 8 8 6 5 4 5 5 6 7 9 11 13 14 14 15 17 16 15 14 13 12 12 11 10 6 4 4 5 5 5 4 3
0 0 0 0 0 0 0 0 0 1 3 5 7 7 5 5 6 6 5 4 4 6 8 9 10 10 12 13 12 11 10 9 9 9 9 8 6 4 3 3 4 4 5 5
0 0 0 0 0 0 0 0 1 1 2 3 5 6 7 8 9 8 6 3 2 4 6 8 9 10 11 11 9 7 5 5 5 6 7 6 5 3 3 2 2 3 3 4
0 0 0 0 0 0 0 1 2 3 2 2 4 7 9 10 9 8 6 3 2 4 7 9 10 10 10 10 10 8 5 4 4 5 5 3 2 1 1 1 1 2 2 2
0 0 0 0 0 0 1 2 3 4 3 2 4 7 8 8 8 8 6 4 4 6 8 9 10 9 8 8 9 9 7 5 3 3 2 1 0 1 1 1 2 3 3 2
0 0 0 0 0 0 1 2 3 3 4 3 3 5 6 6 6 6 5 3 3 5 7 9 10 9 8 8 8 7 6 5 4 3 1 0 0 1 2 2 3 3 3 2
0 0 0 0 0 0 0 1 1 2 4 4 4 4 4 3 3 3 2 1 2 4 7 9 10 10 10 9 8 7 6 5 5 4 2 0 0 1 1 1 1 1 1 1
0 0 0 0 0 0 0 0 0 1 3 3 3 3 2 1 1 1 1 0 1 4 7 9 9 10 10 10 9 8 7 5 4 3 2 0 0 0 0 0 0 0 0 0
0 0 0 0 0 0 0 0 0 0 1 2 2 2 2 1 1 1 1 1 2 4 6 7 7 8 9 9 9 8 7 5 3 1 1 0 0 0 0 0 0 0 0 0
0 0 0 0 0 0 0 0 0 1 2 2 2 2 3 3 3 2 2 2 3 4 4 4 5 6 7 7 7 7 6 4 3 2 1 0 0 0 0 0 0 0 0 0
0 0 0 0 0 0 0 0 0 1 1 2 2 2 3 4 4 3 2 3 4 4 4 3 4 4 5 6 6 6 6 4 3 2 1 0 0 0 0 0 0 0 0 0
0 0 0 0 0 0 0 0 0 0 0 1 1 1 3 4 3 2 2 2 3 4 3 3 3 3 4 5 6 6 5 4 3 2 1 0 0 0 0 0 0 0 0 0
0 0 0 0 0 0 0 1 1 0 0 0 0 1 2 2 2 2 2 3 3 3 3 3 3 2 2 3 4 4 4 3 2 1 0 0 0 0 0 0 0 0 0 0
0 0 0 0 0 0 1 2 1 0 0 0 0 0 0 0 1 2 3 3 3 3 3 3 2 1 1 2 2 2 1 2 1 0 0 0 0 0 0 0 0 0 0 0
0 0 0 0 0 0 1 1 1 0 0 0 0 0 0 0 0 1 1 2 3 3 2 1 1 0 1 1 1 0 0 1 1 0 0 0 0 0 0 0 0 0 0 0
0 0 0 0 0 0 0 0 0 0 0 0 0 1 0 0 0 0 0 1 2 1 1 0 0 0 0 0 0 0 0 0 0 0 0 0 0 0 0 0 0 0 0 0
0 0 0 0 0 0 0 0 0 0 0 0 0 0 0 0 0 0 0 0 0 0 0 0 0 0 0 0 0 0 0 0 0 0 0 0 0 0 0 0 0 0 0 0
0 0 0 0 0 0 0 0 0 0 0 0 0 0 0 0 0 0 0 0 0 0 0 0 0 0 0 0 0 0 0 0 0 0 0 0 0 0 0 0 0 0 0 0
0 0 0 0 0 0 0 0 0 0 0 0 0 0 0 0 0 0 0 0 0 0 0 0 0 0 0 0 0 0 0 0 0 0 0 0 0 0 0 0 0 0 0 0
0 0 0 0 0 0 0 0 0 0 0 0 0 0 0 0 0 0 0 0 0 0 0 0 0 0 0 0 0 0 0 0 0 0 0 0 0 0 0 0 0 0 0 0
0 0 1 0 0 0 0 0 0 0 0 0 0 0 0 0 0 0 0 0 0 0 0 0 0 0 0 0 0 0 0 0 0 0 0 0 0 0 0 0 0 0 0 0
0 0 0 0 0 0 0 0 0 0 0 0 0 0 0 0 0 0 0 0 0 0 0 0 0 0 0 0 0 0 1 1 0 0 0 0 0 0 0 0 0 0 0 0
0 0 0 0 0 0 0 0 0 0 0 0 0 0 0 0 0 0 0 0 0 0 0 0 0 0 0 0 0 1 2 2 1 0 0 0 0 0 0 0 0 0 0 0
Wind_Speed
5 4 3 3 3 5 5 7 8 8 8 8 5 5 4 4 3 3 3 4 5 5 4 3 3 4 5 5 5 5 5 5 4 4 3 3 3 3 3 3 3 3 3 3
2 2 3 2 2 3 3 3 4 3 7 5 2 2 2 3 5 5 5 6 6 6 5 4 4 4 4 4 4 5 5 5 4 3 2 2 2 2 2 2 3 3 3 3
3 1 1 3 4 4 3 3 5 7 7 1 2 4 5 5 5 6 6 6 6 6 5 5 5 5 5 5 4 5 4 4 4 3 3 3 2 2 3 3 2 2 3 3
2 2 4 6 2 3 3 3 3 3 3 4 4 3 3 3 5 5 5 5 5 4 4 3 3 3 4 4 4 4 4 3 4 4 3 2 2 2 2 2 2 3 3 3
4 3 4 4 1 2 2 3 1 2 2 0 2 2 2 2 3 4 5 4 4 4 4 4 4 4 4 4 3 3 3 3 4 4 3 3 3 3 2 1 2 2 2 2
4 4 5 6 3 1 2 3 2 1 2 2 4 2 4 2 2 2 3 3 4 4 4 4 3 4 5 4 3 3 3 3 3 4 4 4 3 2 1 1 2 1 1 2
3 3 5 5 4 1 4 6 3 2 3 4 4 4 2 1 1 2 3 3 4 4 4 3 4 5 5 3 4 4 3 3 3 3 4 4 3 2 2 1 1 1 1 1
3 3 6 3 2 3 5 3 1 2 3 3 1 0 2 3 2 3 3 3 3 3 3 2 3 5 4 4 3 2 3 3 3 3 3 3 3 2 2 2 1 1 1 1
6 6 4 2 3 3 2 2 2 3 1 2 2 1 2 2 2 2 3 3 3 3 3 2 2 4 4 3 2 3 3 2 2 2 2 2 3 3 2 2 2 1 1 1
1 4 3 2 2 1 1 2 2 2 2 3 3 3 2 2 2 2 2 2 2 3 2 1 1 2 3 3 3 4 3 2 2 2 2 1 2 2 2 2 2 2 2 2
2 4 3 3 2 2 1 0 1 2 2 3 5 4 3 2 2 2 2 1 2 2 1 1 1 1 1 2 4 4 3 2 2 2 2 1 1 1 2 3 4 4 3 2
6 6 4 4 3 2 1 1 1 2 2 1 3 3 3 3 2 2 2 1 2 1 1 0 0 0 0 1 3 4 3 2 1 1 1 2 1 1 2 1 1 3 4 3
5 3 3 3 2 2 2 2 2 3 3 2 2 3 3 2 2 2 2 1 1 2 3 2 2 1 0 1 2 3 3 2 1 1 1 2 2 2 0 2 1 0 2 2
4 2 1 2 2 1 0 1 2 2 2 2 2 2 3 2 2 3 2 2 1 2 2 3 2 2 1 2 2 3 2 2 2 2 2 2 2 2 2 2 0 1 1 1
3 3 4 2 1 1 2 2 3 2 1 1 2 2 3 3 3 2 1 1 2 2 2 2 2 1 1 2 3 3 2 2 1 1 2 2 2 2 2 2 1 1 1 1
1 1 2 1 1 1 2 2 1 0 1 2 2 2 3 3 3 2 2 2 3 2 2 1 2 2 2 3 3 2 2 2 2 1 1 1 2 2 2 2 1 2 2 2
2 1 1 1 1 1 1 2 2 2 2 2 2 2 3 3 3 2 1 1 2 2 2 2 2 2 2 3 3 2 2 2 2 1 2 2 2 2 2 2 2 2 2 2
3 4 3 3 3 2 2 2 2 2 2 2 2 2 3 3 3 3 2 2 2 1 1 1 1 1 1 2 2 2 2 2 2 2 2 2 2 2 2 2 3 3 2 2
2 2 2 2 2 2 2 2 2 2 2 2 2 2 2 2 2 1 1 2 2 2 2 2 2 1 2 2 2 2 2 2 2 2 2 2 2 2 2 2 3 3 2 2
1 1 1 0 1 1 1 1 2 1 1 2 2 1 1 1 1 2 2 2 2 3 2 2 1 1 2 2 2 2 2 2 2 2 2 2 2 2 2 3 3 3 2 2
0 0 1 1 1 0 1 2 2 1 1 2 2 2 2 2 1 2 2 2 3 2 1 2 2 2 2 2 2 2 2 2 2 2 2 2 2 2 2 2 2 2 2 2
1 0 1 1 1 0 0 1 2 2 1 1 1 1 1 1 1 1 1 2 2 2 1 1 1 2 2 2 2 2 2 2 2 2 2 2 2 2 2 2 2 2 2 2
1 1 1 1 2 1 1 1 2 2 2 1 1 1 2 2 2 1 2 2 1 1 1 1 2 2 2 1 1 2 2 2 2 2 2 2 2 2 2 2 2 2 2 2
1 0 1 1 2 2 1 0 1 1 1 1 1 1 1 1 1 1 1 1 1 1 1 1 2 2 1 0 1 1 2 2 2 2 2 2 2 2 2 2 2 2 2 3
1 1 1 2 2 1 1 1 1 1 1 1 1 1 1 1 2 1 1 1 1 1 1 1 1 1 0 0 1 1 1 1 2 2 2 2 2 2 2 2 2 2 2 2
2 1 0 1 1 1 1 1 1 0 0 0 1 1 1 1 0 0 0 0 0 1 1 0 0 0 0 1 1 1 1 1 1 1 1 1 2 2 2 2 3 2 2 3
1 1 1 1 1 0 1 1 1 1 1 1 1 1 1 1 0 0 0 0 0 0 1 1 0 0 0 0 1 1 1 1 1 1 1 1 1 1 2 2 2 2 2 2
Wind_Direction
224 230 183 188 190 176 186 188 189 223 228 251 237 226 220 201 182 177 178 166 169 165 164 168 166 175 172 174 168 165 162 165 182 194 196 194 193 199 200 198 199 194 191 197
248 240 189 204 223 195 212 200 217 236 257 256 231 171 181 189 178 185 189 185 179 166 160 166 170 174 170 168 165 160 162 172 177 176 183 196 200 196 194 193 197 187 189 192
224 269 99 251 221 193 208 223 192 215 241 196 185 201 201 202 198 193 190 185 178 172 169 168 171 167 167 167 157 157 160 167 166 179 194 206 201 185 196 201 193 196 202 197
141 112 213 238 221 175 189 257 228 233 247 207 212 220 213 204 199 199 189 184 178 168 163 157 153 152 148 144 154 158 159 170 171 182 190 189 180 196 209 206 208 219 217 215
124 162 259 289 229 155 178 273 262 241 277 239 100 69 319 242 200 202 192 176 166 161 153 144 144 147 137 136 147 154 167 179 182 182 182 184 197 213 214 200 223 224 219 217
128 154 219 245 266 250 121 283 292 213 223 176 118 138 258 240 193 180 154 144 139 135 132 142 154 144 141 153 162 184 193 191 185 181 180 192 203 207 200 191 219 216 236 232
146 188 252 265 289 114 153 243 280 221 207 184 190 212 236 140 139 152 132 133 133 135 145 166 160 148 155 169 201 211 188 163 172 192 194 193 188 187 176 172 185 208 253 275
143 170 250 279 93 160 212 253 242 223 210 192 204 59 84 93 108 111 106 116 131 133 141 147 154 154 164 197 213 184 161 157 172 192 203 187 172 174 168 167 179 211 236 291
181 204 235 228 201 225 200 206 227 208 211 139 100 57 69 81 95 99 109 118 124 136 137 145 157 158 175 207 177 161 152 163 175 181 193 177 173 177 175 171 181 209 211 253
233 271 271 272 257 262 219 217 244 197 152 133 133 126 106 100 101 103 99 121 129 133 139 171 190 181 192 189 167 155 160 165 165 168 181 176 170 175 179 187 192 202 209 236
248 269 316 308 260 256 276 108 85 87 119 147 140 141 144 151 143 134 116 90 98 121 164 211 191 206 217 175 149 145 151 156 161 168 164 164 169 195 204 210 203 200 213 214
222 225 196 243 264 252 222 227 173 131 90 113 148 153 149 157 155 149 143 122 103 117 141 177 131 189 198 164 152 147 149 154 159 164 163 158 145 40 11 247 222 214 211 208
224 232 216 243 275 256 222 219 180 151 148 144 151 157 154 153 149 132 130 136 173 176 161 147 140 175 163 154 145 146 159 165 168 169 171 171 171 168 192 4 27 233 218 212
220 186 255 266 261 269 186 94 84 88 92 110 122 132 131 123 127 136 161 193 180 148 140 141 147 175 178 147 140 144 147 159 177 196 189 184 190 197 190 189 234 324 321 252
248 204 214 237 276 76 100 99 88 66 69 90 121 131 134 140 152 168 176 143 113 120 125 133 152 200 182 154 153 160 162 173 193 212 201 187 189 190 192 194 201 233 286 315
270 122 147 155 198 124 103 115 126 219 146 128 128 137 147 152 152 150 149 146 142 159 180 177 206 217 170 155 156 162 175 189 199 193 201 188 189 194 195 194 208 227 240 248
161 181 178 182 247 252 215 199 188 203 167 146 159 147 128 125 127 138 158 174 166 179 186 186 221 228 184 169 167 175 178 173 177 185 201 204 203 208 210 211 218 227 242 243
207 204 198 196 199 220 228 192 169 160 164 174 145 132 136 148 169 188 187 148 114 83 256 224 220 224 204 186 177 174 177 187 192 202 208 210 216 216 213 217 223 231 250 250
213 204 210 215 211 201 200 186 174 174 178 155 142 159 178 184 186 181 154 148 160 218 259 244 237 213 217 213 188 172 178 189 201 210 216 216 219 217 215 220 227 232 233 230
224 205 183 312 87 135 163 169 150 155 170 153 144 147 174 211 185 162 163 203 225 224 229 241 231 225 224 210 193 183 188 197 203 212 223 224 225 228 227 226 227 234 237 232
262 227 136 123 99 93 168 163 152 160 182 145 154 178 205 230 207 166 163 251 276 259 239 248 238 237 235 226 209 197 200 206 208 215 225 231 231 231 227 227 232 236 238 240
280 182 156 153 145 299 300 156 151 146 139 148 168 165 160 186 213 209 227 242 264 281 274 256 255 250 246 236 216 208 218 220 219 214 217 220 220 228 235 234 234 239 239 244
289 206 171 171 167 163 106 115 134 143 154 179 194 189 189 207 204 198 261 270 258 264 273 264 271 270 251 233 216 214 217 225 228 220 212 214 221 226 230 236 239 240 241 245
346 129 136 127 117 115 114 108 111 119 152 204 219 206 192 205 268 250 237 251 253 243 253 266 266 263 244 240 220 219 217 218 222 220 217 215 216 220 227 229 235 242 246 250
17 51 92 113 118 142 178 136 71 55 53 19 340 321 247 203 207 241 245 244 253 265 294 285 258 254 239 251 248 230 216 216 218 216 219 215 212 215 227 232 235 240 243 249
26 21 45 171 174 183 176 147 132 126 93 32 340 323 315 298 224 223 211 262 313 342 337 318 264 216 249 236 230 238 241 235 226 223 224 225 209 208 223 233 244 247 247 250
28 24 18 11 7 166 158 154 164 201 205 191 280 303 307 316 333 356 25 31 19 2 332 314 291 246 236 235 240 253 255 241 221 210 204 205 207 215 227 235 245 250 251 251